[[{"header":{"parameterUnit":"m.s-1","parameterCategory":2,"la1":30.2991,"la2":30.254,"lo1":-89.0895,"lo2":-89.0444,"dy":0.0017,"dx":0.0017,"nx":28,"ny":28,"refTime":"2025-11-18T03:00:00:Z","depth":"0","parameterNumber":2,"parameterNumberName":"U-component_of_CURRENTS"},"data":[0,0,0,0,0,0,0,0,0,0,0,0,0,0,0,0,0,0,0,0,0,0,0,0,0,0,0,0,0,0,0,0,0,0,0,0,0,0,0,0,0,0,0,0,0,0,0,0,0,0,0,0,0,0,0,0,0,0,-0.3221,-0.3221,0,-0.3185,-0.3184,-0.3184,-0.3125,-0.3124,-0.3123,-0.3123,-0.3035,-0.3034,-0.3032,0,0,0,0,0,0,0,0,0,0,0,0,0,-0.3202,-0.3202,-0.3221,-0.3221,-0.3221,-0.3185,-0.3184,-0.3183,-0.3125,-0.3124,-0.3123,-0.3122,-0.3036,-0.3034,-0.3032,0,0,0,0,0,0,0,0,0,0,0,0,0,-0.3189,-0.3202,-0.3221,-0.319,-0.3187,-0.3185,-0.3184,-0.3183,-0.3125,-0.3124,-0.3123,-0.3122,-0.3036,-0.3034,-0.3032,-0.3039,0,0,-0.3024,-0.3023,0,0,0,0,0,0,0,0,-0.319,-0.3189,-0.3195,-0.3192,-0.3189,-0.3161,-0.3145,-0.3134,-0.3126,-0.3145,-0.3123,-0.3121,-0.3076,-0.307,-0.3061,-0.3035,-0.3031,-0.3024,-0.3022,-0.3021,-0.3021,0,0,0,0,0,0,0,-0.3191,-0.319,-0.3203,-0.3195,-0.3191,-0.3165,-0.3162,-0.3143,-0.3113,-0.3143,-0.314,-0.3142,-0.3073,-0.3064,-0.3059,-0.303,-0.3024,-0.3022,-0.302,-0.3019,-0.3005,-0.3006,0,0,0,0,0,0,-0.3206,-0.3192,-0.3204,-0.3202,-0.3191,-0.3167,-0.3163,-0.3169,-0.3115,-0.3107,-0.3143,-0.3139,-0.3069,-0.3062,-0.3056,-0.3066,-0.3021,-0.3019,-0.3018,-0.3004,-0.3005,-0.3006,0,0,0,0,0,0,-0.3206,-0.3208,-0.3206,-0.3199,-0.3197,-0.3169,-0.3175,-0.3169,-0.3157,-0.3116,-0.3106,-0.3138,-0.3068,-0.3059,-0.3047,-0.3062,-0.3018,-0.3016,-0.3003,-0.3004,-0.3006,-0.3084,0,0,0,0,0,0,-0.3205,-0.3208,-0.3212,-0.32,-0.3198,-0.3211,-0.3176,-0.3169,-0.3162,-0.3157,-0.3109,-0.31,-0.3066,-0.3051,-0.3044,-0.3058,-0.3014,-0.3001,-0.3003,-0.3005,-0.308,-0.3088,-0.3095,0,0,0,0,0,-0.3205,-0.3221,-0.3213,-0.3214,-0.3207,-0.3213,-0.3209,-0.3182,-0.3163,-0.3166,-0.3136,-0.3101,-0.3059,-0.305,-0.3042,-0.3055,-0.3,-0.3003,-0.3005,-0.3077,-0.3087,-0.3095,0,0,0,0,0,0,-0.3213,-0.3217,-0.3207,-0.3222,-0.3221,-0.3204,-0.3204,-0.319,-0.3169,-0.316,-0.3115,-0.3105,-0.3097,-0.3071,-0.3062,-0.3058,-0.3024,-0.3025,-0.3081,-0.309,-0.3097,-0.3108,-0.3012,0,0,0,0,0,-0.322,-0.323,-0.323,-0.3239,-0.3243,-0.3224,-0.3221,-0.3208,-0.3192,-0.3181,-0.315,-0.3121,-0.3103,-0.3092,-0.3068,-0.307,-0.3008,-0.3074,-0.3082,-0.3088,-0.3092,-0.3052,-0.3056,-0.3014,-0.3014,-0.3014,0,0,-0.3225,-0.3228,-0.3232,-0.3241,-0.3234,-0.325,-0.3219,-0.3222,-0.3232,-0.3176,-0.3172,-0.3143,-0.3109,-0.3107,-0.3102,-0.3087,-0.3054,-0.3091,-0.3097,-0.3097,-0.3055,-0.3058,-0.3062,-0.3016,-0.3016,-0.3016,0,0,-0.3238,-0.3244,-0.3254,-0.3268,-0.3271,-0.3267,-0.3273,-0.3264,-0.3254,-0.3252,-0.3217,-0.3209,-0.317,-0.3162,-0.315,-0.3189,-0.3093,-0.3171,-0.3219,-0.3181,-0.3183,-0.3185,-0.305,-0.304,-0.3178,-0.3179,-0.3179,0,-0.3238,-0.3252,-0.3258,-0.328,-0.329,-0.328,-0.3296,-0.3301,-0.3287,-0.3286,-0.3258,-0.3222,-0.3201,-0.3208,-0.3223,-0.3207,-0.3128,-0.3188,-0.319,-0.3191,-0.3191,-0.3053,-0.304,-0.3183,-0.3182,-0.3182,-0.3181,0,-0.3252,-0.3277,-0.3289,-0.3312,-0.333,-0.3342,-0.3359,-0.3373,-0.3356,-0.3347,-0.3339,-0.3309,-0.3286,-0.3285,-0.3264,-0.3267,-0.3185,-0.32,-0.3166,-0.32,-0.3051,-0.3037,-0.3188,-0.3187,-0.3186,-0.3185,0,0,-0.3199,-0.328,-0.328,-0.3297,-0.3345,-0.3349,-0.3401,-0.3419,-0.3416,-0.342,-0.339,-0.3412,-0.3383,-0.3369,-0.3342,-0.3321,-0.3248,-0.3265,-0.3261,-0.3127,-0.3073,-0.3024,-0.3001,-0.3257,-0.3256,-0.3256,-0.2944,0,-0.3191,-0.3235,-0.3283,-0.332,-0.334,-0.3387,-0.3422,-0.345,-0.3441,-0.3413,-0.3416,-0.3372,-0.3418,-0.3373,-0.3381,-0.3256,-0.3223,-0.3326,-0.3064,-0.3054,-0.3006,-0.299,-0.2887,-0.2605,-0.293,-0.2927,-0.2925,0,-0.3163,-0.3198,-0.3236,-0.331,-0.332,-0.3346,-0.3375,-0.3405,-0.3418,-0.3407,-0.3415,-0.3374,-0.3347,-0.3362,-0.324,-0.3291,-0.3206,-0.3126,-0.3112,-0.3037,-0.2981,-0.2636,-0.2565,-0.2561,-0.2902,-0.2904,-0.2905,0,-0.3068,-0.3157,-0.3176,-0.3204,-0.3291,-0.3313,-0.3347,-0.3388,-0.3358,-0.3375,-0.3305,-0.3324,-0.3231,-0.3194,-0.3097,-0.3133,-0.2911,-0.2934,-0.281,-0.2799,-0.2648,-0.2629,-0.2548,-0.2868,-0.2869,-0.287,-0.2871,0,-0.302,-0.3038,-0.3132,-0.3134,-0.3125,-0.3239,-0.3197,-0.3259,-0.3252,-0.3191,-0.3269,-0.3186,-0.3185,-0.3076,-0.3032,-0.2859,-0.2869,-0.2795,-0.2735,-0.2666,-0.2653,-0.2594,-0.264,-0.2858,-0.286,-0.2863,-0.2865,0,-0.2906,-0.2984,-0.2985,-0.3062,-0.307,-0.3054,-0.3049,-0.3022,-0.3074,-0.2978,-0.2964,-0.2985,-0.2887,-0.2862,-0.2733,-0.2714,-0.254,-0.2549,-0.2429,-0.2367,-0.2264,-0.2318,-0.2154,-0.2084,-0.2306,-0.2303,-0.2301,0,-0.2846,-0.2836,-0.286,-0.2823,-0.2844,-0.2831,-0.2808,-0.2892,-0.2863,-0.2853,-0.2786,-0.2706,-0.2653,-0.2454,-0.2418,-0.2293,-0.2377,-0.2144,-0.2255,-0.2232,-0.2246,-0.23,-0.2259,-0.2023,-0.2019,-0.2015,-0.2012,0,-0.2672,-0.2675,-0.2659,-0.2598,-0.2563,-0.2531,-0.2528,-0.2475,-0.258,-0.2533,-0.2496,-0.2454,-0.2333,-0.221,-0.2112,-0.2049,-0.2106,-0.2065,-0.2079,-0.2058,-0.2069,-0.1981,-0.22,-0.198,-0.1984,-0.1986,-0.1988,-0.1989,-0.2488,-0.2416,-0.2378,-0.2321,-0.2292,-0.2256,-0.2176,-0.2215,-0.2163,-0.2137,-0.2213,-0.2152,-0.2102,-0.1954,-0.1877,-0.175,-0.1837,-0.1726,-0.1783,-0.1832,-0.183,-0.1959,-0.1692,-0.1694,-0.1695,-0.1696,-0.1697,0,-0.2226,-0.2175,-0.21,-0.2034,-0.1962,-0.203,-0.1993,-0.1923,-0.1858,-0.1915,-0.1896,-0.1873,-0.1747,-0.1715,-0.16,-0.1515,-0.1483,-0.1495,-0.155,-0.1514,-0.1618,-0.1679,-0.1355,-0.1355,-0.1355,-0.1355,-0.1355,-0.1355,-0.2074,-0.1919,-0.1907,-0.1729,-0.1702,-0.1573,-0.1536,-0.1489,-0.1501,-0.1463,-0.1501,-0.1523,-0.1545,-0.1685,-0.1551,-0.1453,-0.1437,-0.1383,-0.1423,-0.1533,-0.156,-0.1586,-0.1655,-0.133,-0.1331,-0.1245,-0.1245,-0.1245]},{"header":{"parameterUnit":"m.s-1","parameterCategory":2,"la1":30.2991,"la2":30.254,"lo1":-89.0895,"lo2":-89.0444,"dy":0.0017,"dx":0.0017,"nx":28,"ny":28,"refTime":"2025-11-18T03:00:00:Z","depth":"0","parameterNumber":3,"parameterNumberName":"V-component_of_CURRENTS"},"data":[0,0,0,0,0,0,0,0,0,0,0,0,0,0,0,0,0,0,0,0,0,0,0,0,0,0,0,0,0,0,0,0,0,0,0,0,0,0,0,0,0,0,0,0,0,0,0,0,0,0,0,0,0,0,0,0,0,0,0.0027,0.0027,0,0.0119,0.012,0.0121,0.017,0.017,0.017,0.017,0.0324,0.0328,0.0332,0,0,0,0,0,0,0,0,0,0,0,0,0,-0.0067,-0.0065,0.0026,0.0027,0.0028,0.0119,0.012,0.0122,0.017,0.017,0.017,0.0169,0.0323,0.0328,0.0333,0,0,0,0,0,0,0,0,0,0,0,0,0,-0.0004,-0.0065,0.0026,0.0062,0.0066,0.0119,0.012,0.0122,0.017,0.017,0.017,0.0169,0.0321,0.0327,0.0333,0.0374,0,0,0.0353,0.0355,0,0,0,0,0,0,0,0,-0.0008,-0.0001,0.0056,0.006,0.0065,0.0132,0.0144,0.0209,0.017,0.0132,0.017,0.0169,0.0265,0.0276,0.0294,0.0381,0.0388,0.0353,0.0357,0.036,0.0361,0,0,0,0,0,0,0,-0.0012,-0.0004,0.0064,0.0057,0.0062,0.0088,0.0097,0.0157,0.02,0.0135,0.0139,0.0147,0.0268,0.0288,0.0298,0.039,0.0353,0.0358,0.0362,0.0365,0.0508,0.0508,0,0,0,0,0,0,-0.0028,-0.0008,0.0062,0.0067,0.0026,0.009,0.0099,0.0111,0.0198,0.021,0.0147,0.0149,0.0277,0.0291,0.0304,0.0338,0.0359,0.0365,0.0369,0.0508,0.0508,0.0508,0,0,0,0,0,0,-0.0031,-0.0023,0.0058,0.003,0.0042,0.0091,0.0104,0.0113,0.0132,0.0206,0.022,0.0156,0.0278,0.0295,0.0349,0.0345,0.0368,0.0374,0.0508,0.0508,0.0508,0.0419,0,0,0,0,0,0,-0.0034,-0.0024,-0.0018,0.0029,0.0043,0.0079,0.0104,0.0115,0.0136,0.014,0.0218,0.0233,0.0279,0.0339,0.0355,0.0354,0.0379,0.0508,0.0508,0.0508,0.0422,0.0416,0.0411,0,0,0,0,0,-0.0037,-0.0033,-0.0018,-0.001,0.0049,0.0079,0.0088,0.0124,0.0137,0.0141,0.0192,0.023,0.0351,0.0345,0.0363,0.0364,0.0508,0.0508,0.0508,0.0424,0.0417,0.0411,0,0,0,0,0,0,-0.0069,-0.0027,-0.0009,0.0008,0.0037,0.0086,0.0094,0.012,0.0164,0.0167,0.0236,0.0254,0.0298,0.0346,0.0337,0.0406,0.0434,0.0438,0.0364,0.0358,0.0353,0.0331,0.0384,0,0,0,0,0,-0.0074,-0.0062,-0.0018,-0.0007,0.0004,0.0049,0.0067,0.0089,0.0132,0.0151,0.0205,0.0263,0.0315,0.0346,0.0399,0.0442,0.0477,0.0454,0.0449,0.0444,0.0439,0.0484,0.0482,0.0508,0.0508,0.0508,0,0,-0.0084,-0.006,-0.0052,-0.0013,0.0011,0.0018,0.0059,0.0077,0.0085,0.0163,0.0192,0.0248,0.0322,0.0362,0.0387,0.0402,0.0453,0.0444,0.0439,0.0437,0.0484,0.0481,0.0479,0.0508,0.0508,0.0508,0,0,-0.0117,-0.0078,-0.009,-0.0065,-0.0035,-0.0006,-0.0005,0.0041,0.0063,0.0101,0.0154,0.0205,0.0286,0.0334,0.0371,0.0372,0.0421,0.0388,0.0347,0.039,0.0388,0.0387,0.0414,0.0416,0.0387,0.0387,0.0387,0,-0.0135,-0.014,-0.0088,-0.0093,-0.0086,-0.0024,-0.0042,-0.0001,0.0056,0.0074,0.0097,0.0209,0.0272,0.0324,0.0322,0.0359,0.0384,0.0362,0.0381,0.0381,0.0381,0.041,0.0413,0.0383,0.0383,0.0384,0.0384,0,-0.0179,-0.0181,-0.0186,-0.0174,-0.0153,-0.0156,-0.0101,-0.0074,-0.0038,0.0002,0.0058,0.0144,0.0209,0.0238,0.0283,0.0316,0.0333,0.0364,0.039,0.0372,0.0404,0.0409,0.0376,0.0378,0.0379,0.038,0,0,-0.0242,-0.0226,-0.0232,-0.0247,-0.0201,-0.0196,-0.0169,-0.0138,-0.0123,-0.0054,-0.0035,0.0062,0.0111,0.0156,0.0223,0.0266,0.029,0.0307,0.0312,0.0321,0.0369,0.0428,0.0439,0.0319,0.032,0.032,0.0386,0,-0.0308,-0.0356,-0.0316,-0.0354,-0.0378,-0.0303,-0.0283,-0.0233,-0.0176,-0.0133,-0.0039,0.001,0.008,0.0109,0.0164,0.0254,0.03,0.0268,0.0398,0.0402,0.0446,0.0447,0.0504,0.0572,0.0391,0.0392,0.0393,0,-0.0381,-0.0406,-0.0464,-0.0461,-0.0462,-0.0457,-0.0419,-0.039,-0.0294,-0.0247,-0.0172,-0.0091,-0.0013,0.005,0.0188,0.016,0.0257,0.0331,0.0336,0.0427,0.047,0.0567,0.0588,0.0767,0.0401,0.04,0.0399,0,-0.0487,-0.0513,-0.0571,-0.0568,-0.0541,-0.0541,-0.0518,-0.0434,-0.0411,-0.032,-0.0292,-0.0179,-0.0126,-0.0001,0.0171,0.017,0.0326,0.0346,0.0493,0.0497,0.0592,0.0604,0.0794,0.0452,0.0451,0.0451,0.0451,0,-0.0582,-0.0624,-0.0626,-0.0652,-0.0698,-0.0641,-0.0651,-0.0595,-0.0522,-0.0493,-0.0365,-0.0312,-0.0135,-0.001,0.0138,0.0331,0.0304,0.0486,0.0523,0.0562,0.0571,0.0769,0.083,0.0454,0.0453,0.0453,0.0452,0,-0.0679,-0.0681,-0.0744,-0.0749,-0.0748,-0.0779,-0.0743,-0.0737,-0.0657,-0.0615,-0.0593,-0.043,-0.0261,-0.0063,0.015,0.0288,0.0587,0.0553,0.0582,0.0622,0.0905,0.0957,0.1166,0.1278,0.0695,0.0697,0.0699,0,-0.0733,-0.078,-0.0826,-0.0854,-0.0855,-0.0879,-0.088,-0.0813,-0.0794,-0.0673,-0.0658,-0.0488,-0.033,0.0,0.0273,0.0541,0.0691,0.0749,0.077,0.0936,0.1022,0.106,0.1142,0.0853,0.0855,0.0858,0.0859,0,-0.0824,-0.0839,-0.0879,-0.0949,-0.0975,-0.1003,-0.0998,-0.1005,-0.0909,-0.0848,-0.0722,-0.059,-0.0243,0.01,0.0459,0.063,0.0889,0.0803,0.098,0.1167,0.1217,0.1338,0.0778,0.0879,0.0877,0.0876,0.0875,0.0874,-0.0873,-0.0922,-0.0968,-0.1025,-0.1063,-0.1095,-0.1105,-0.1074,-0.1031,-0.0892,-0.0764,-0.0481,-0.0015,0.0505,0.0695,0.1126,0.1073,0.1263,0.1311,0.1333,0.146,0.0936,0.108,0.108,0.1079,0.1078,0.1078,0,-0.092,-0.096,-0.1031,-0.1089,-0.1138,-0.1139,-0.1148,-0.1114,-0.1049,-0.0863,-0.0688,-0.0083,0.0391,0.0834,0.1394,0.1628,0.1684,0.1743,0.1822,0.1881,0.1433,0.1461,0.169,0.169,0.1689,0.1689,0.1689,0.1689,-0.0936,-0.1002,-0.1037,-0.1122,-0.1163,-0.1185,-0.1184,-0.1113,-0.0963,-0.0612,-0.0233,0.0085,0.0727,0.1531,0.2053,0.2105,0.2309,0.2284,0.2387,0.2088,0.2047,0.2008,0.2054,0.2402,0.2403,0.2844,0.2848,0.2851]}],[{"header":{"parameterUnit":"m.s-1","parameterCategory":2,"la1":30.2991,"la2":30.254,"lo1":-89.0895,"lo2":-89.0444,"dy":0.0017,"dx":0.0017,"nx":28,"ny":28,"refTime":"2025-11-18T03:00:00:Z","depth":"2","parameterNumber":2,"parameterNumberName":"U-component_of_CURRENTS"},"data":[0,0,0,0,0,0,0,0,0,0,0,0,0,0,0,0,0,0,0,0,0,0,0,0,0,0,0,0,0,0,0,0,0,0,0,0,0,0,0,0,0,0,0,0,0,0,0,0,0,0,0,0,0,0,0,0,0,0,-0.2211,-0.2212,0,-0.2211,-0.221,-0.221,-0.2157,-0.2157,-0.2156,-0.2155,-0.2239,-0.2242,-0.2245,0,0,0,0,0,0,0,0,0,0,0,0,0,-0.2123,-0.2124,-0.2211,-0.2212,-0.2213,-0.2211,-0.221,-0.2209,-0.2157,-0.2157,-0.2156,-0.2155,-0.2238,-0.2242,-0.2245,0,0,0,0,0,0,0,0,0,0,0,0,0,-0.2138,-0.2125,-0.2211,-0.2192,-0.2191,-0.2211,-0.221,-0.2209,-0.2157,-0.2156,-0.2156,-0.2155,-0.2237,-0.2241,-0.2245,-0.2291,0,0,-0.2258,-0.226,0,0,0,0,0,0,0,0,-0.2137,-0.2141,-0.2194,-0.2194,-0.2193,-0.219,-0.221,-0.2244,-0.2158,-0.2162,-0.2155,-0.2154,-0.2237,-0.2241,-0.223,-0.2295,-0.2299,-0.2259,-0.2261,-0.2263,-0.2264,0,0,0,0,0,0,0,-0.2137,-0.214,-0.2203,-0.2195,-0.2194,-0.2169,-0.217,-0.2215,-0.22,-0.2162,-0.216,-0.2172,-0.2235,-0.2226,-0.2232,-0.23,-0.2259,-0.2262,-0.2265,-0.2267,-0.2434,-0.2436,0,0,0,0,0,0,-0.2156,-0.214,-0.2203,-0.2204,-0.2171,-0.2172,-0.2173,-0.2185,-0.2198,-0.22,-0.2173,-0.217,-0.2219,-0.2227,-0.2235,-0.2301,-0.2263,-0.2267,-0.227,-0.2432,-0.2435,-0.2437,0,0,0,0,0,0,-0.2154,-0.2162,-0.2203,-0.2178,-0.2182,-0.2176,-0.219,-0.2186,-0.2186,-0.2207,-0.2209,-0.2179,-0.2219,-0.2229,-0.2304,-0.2304,-0.2269,-0.2273,-0.243,-0.2433,-0.2436,-0.2427,0,0,0,0,0,0,-0.2152,-0.2161,-0.217,-0.2179,-0.2185,-0.2228,-0.2192,-0.2187,-0.2199,-0.2194,-0.2214,-0.2219,-0.2219,-0.2298,-0.2308,-0.2309,-0.2276,-0.2428,-0.2431,-0.2435,-0.2425,-0.2429,-0.2433,0,0,0,0,0,-0.2148,-0.2166,-0.217,-0.2178,-0.22,-0.223,-0.223,-0.2216,-0.22,-0.2209,-0.2236,-0.2219,-0.2326,-0.2304,-0.2315,-0.2317,-0.2426,-0.243,-0.2434,-0.2423,-0.2429,-0.2433,0,0,0,0,0,0,-0.213,-0.2164,-0.2168,-0.2195,-0.222,-0.2224,-0.223,-0.223,-0.2252,-0.225,-0.2261,-0.227,-0.2322,-0.2344,-0.2318,-0.2379,-0.2367,-0.2374,-0.2355,-0.236,-0.2364,-0.2374,-0.228,0,0,0,0,0,-0.2136,-0.2154,-0.2189,-0.221,-0.2226,-0.2232,-0.2241,-0.224,-0.2265,-0.227,-0.2294,-0.2322,-0.2348,-0.2375,-0.2402,-0.246,-0.2447,-0.2466,-0.247,-0.2473,-0.2492,-0.2456,-0.2457,-0.2451,-0.2451,-0.245,0,0,-0.2128,-0.2156,-0.2161,-0.2207,-0.2218,-0.2241,-0.2232,-0.2256,-0.2271,-0.2284,-0.232,-0.2341,-0.2368,-0.241,-0.2435,-0.243,-0.2472,-0.2478,-0.248,-0.2499,-0.2461,-0.2461,-0.2461,-0.2453,-0.2453,-0.2452,0,0,-0.2132,-0.2157,-0.2175,-0.2205,-0.2246,-0.2253,-0.2269,-0.2296,-0.2303,-0.2358,-0.2354,-0.2401,-0.2449,-0.2465,-0.2478,-0.2538,-0.2489,-0.2529,-0.2561,-0.2525,-0.2524,-0.2523,-0.251,-0.2507,-0.2535,-0.2535,-0.2535,0,-0.2122,-0.2159,-0.2185,-0.222,-0.2245,-0.2263,-0.2291,-0.2303,-0.2352,-0.2372,-0.2376,-0.2439,-0.2475,-0.2507,-0.2529,-0.2544,-0.2512,-0.253,-0.2525,-0.2524,-0.2523,-0.2509,-0.2507,-0.2535,-0.2535,-0.2535,-0.2535,0,-0.2144,-0.2177,-0.2195,-0.224,-0.2269,-0.23,-0.2335,-0.2365,-0.2383,-0.2395,-0.2444,-0.2489,-0.2526,-0.2536,-0.256,-0.2571,-0.2547,-0.2522,-0.2499,-0.2522,-0.2508,-0.2505,-0.2535,-0.2535,-0.2535,-0.2535,0,0,-0.2107,-0.2192,-0.2197,-0.2226,-0.2287,-0.2309,-0.2352,-0.2394,-0.2412,-0.2453,-0.2478,-0.2543,-0.2554,-0.2575,-0.2589,-0.2586,-0.2571,-0.2559,-0.2557,-0.2523,-0.2487,-0.2403,-0.2392,-0.2513,-0.2512,-0.2512,-0.2478,0,-0.2115,-0.2178,-0.2221,-0.2268,-0.2301,-0.2347,-0.2383,-0.2421,-0.2451,-0.248,-0.2513,-0.2541,-0.2564,-0.2582,-0.2581,-0.2581,-0.2564,-0.2584,-0.2492,-0.2491,-0.2392,-0.2386,-0.2214,-0.2162,-0.2476,-0.2475,-0.2475,0,-0.2117,-0.2165,-0.2219,-0.2293,-0.2312,-0.2339,-0.2398,-0.2434,-0.2478,-0.2506,-0.2533,-0.2543,-0.2586,-0.2577,-0.2571,-0.2568,-0.2538,-0.2524,-0.2521,-0.2446,-0.2401,-0.2194,-0.2146,-0.2471,-0.2471,-0.2471,-0.2472,0,-0.2075,-0.2157,-0.2199,-0.2227,-0.2312,-0.2345,-0.2382,-0.2437,-0.2467,-0.251,-0.2528,-0.2552,-0.2569,-0.2539,-0.2539,-0.254,-0.2496,-0.2486,-0.2377,-0.2371,-0.2216,-0.2196,-0.2446,-0.2446,-0.2446,-0.2446,-0.2446,0,-0.2069,-0.2098,-0.2182,-0.2208,-0.2248,-0.2319,-0.2358,-0.2404,-0.246,-0.2476,-0.2526,-0.2531,-0.2552,-0.2533,-0.2519,-0.2443,-0.2471,-0.2386,-0.2349,-0.2211,-0.2192,-0.2457,-0.2459,-0.2445,-0.2445,-0.2445,-0.2445,0,-0.2011,-0.2076,-0.2119,-0.2207,-0.2231,-0.2253,-0.2334,-0.2355,-0.2426,-0.2447,-0.246,-0.2511,-0.2487,-0.2485,-0.2447,-0.2409,-0.2354,-0.2306,-0.216,-0.2106,-0.2264,-0.2266,-0.2195,-0.2191,-0.2188,-0.2186,-0.2184,0,-0.1988,-0.2007,-0.2088,-0.2103,-0.2142,-0.2191,-0.2219,-0.2316,-0.2338,-0.2417,-0.2411,-0.242,-0.2384,-0.2317,-0.2244,-0.217,-0.2253,-0.1979,-0.1961,-0.2263,-0.2235,-0.2242,-0.2248,-0.1761,-0.1755,-0.1751,-0.1748,0,-0.1924,-0.195,-0.1982,-0.2015,-0.2047,-0.2081,-0.2132,-0.2149,-0.2248,-0.2271,-0.2278,-0.2259,-0.2203,-0.2047,-0.1964,-0.1903,-0.1985,-0.1887,-0.2205,-0.1853,-0.185,-0.1825,-0.1845,-0.1709,-0.1713,-0.1715,-0.1718,-0.1719,-0.1849,-0.1846,-0.188,-0.1896,-0.193,-0.1935,-0.1916,-0.1977,-0.1989,-0.199,-0.2074,-0.1993,-0.1976,-0.1751,-0.1649,-0.1574,-0.1715,-0.1652,-0.1667,-0.1686,-0.1643,-0.1635,-0.1448,-0.145,-0.1452,-0.1454,-0.1455,0,-0.1737,-0.1744,-0.1754,-0.1764,-0.1738,-0.1802,-0.1819,-0.1772,-0.1728,-0.1767,-0.175,-0.1572,-0.1458,-0.1444,-0.126,-0.1223,-0.122,-0.118,-0.1184,-0.1222,-0.1257,-0.1194,-0.0878,-0.0877,-0.0875,-0.0873,0,0,-0.1675,-0.1639,-0.1641,-0.1557,-0.1559,-0.1475,-0.1449,-0.1407,-0.1397,-0.1325,-0.1293,-0.1396,-0.141,-0.1159,-0.1088,-0.0953,-0.1079,-0.09,-0.1362,-0.1406,-0.1438,-0.1525,-0.1471,0,0,0,0,0]},{"header":{"parameterUnit":"m.s-1","parameterCategory":2,"la1":30.2991,"la2":30.254,"lo1":-89.0895,"lo2":-89.0444,"dy":0.0017,"dx":0.0017,"nx":28,"ny":28,"refTime":"2025-11-18T03:00:00:Z","depth":"2","parameterNumber":3,"parameterNumberName":"V-component_of_CURRENTS"},"data":[0,0,0,0,0,0,0,0,0,0,0,0,0,0,0,0,0,0,0,0,0,0,0,0,0,0,0,0,0,0,0,0,0,0,0,0,0,0,0,0,0,0,0,0,0,0,0,0,0,0,0,0,0,0,0,0,0,0,-0.0332,-0.0331,0,-0.025,-0.0249,-0.0248,-0.0188,-0.0187,-0.0187,-0.0186,0.0024,0.0029,0.0034,0,0,0,0,0,0,0,0,0,0,0,0,0,-0.0377,-0.0377,-0.0333,-0.0331,-0.033,-0.025,-0.0249,-0.0248,-0.0188,-0.0187,-0.0186,-0.0186,0.0022,0.0028,0.0034,0,0,0,0,0,0,0,0,0,0,0,0,0,-0.0334,-0.0377,-0.0333,-0.029,-0.0285,-0.025,-0.0249,-0.0247,-0.0188,-0.0187,-0.0186,-0.0185,0.002,0.0028,0.0035,0.0063,0,0,0.0058,0.0061,0,0,0,0,0,0,0,0,-0.0336,-0.0332,-0.0297,-0.0293,-0.0287,-0.0227,-0.0187,-0.0137,-0.0188,-0.0226,-0.0186,-0.0185,-0.0048,-0.0035,-0.0025,0.0073,0.0082,0.0059,0.0063,0.0067,0.0069,0,0,0,0,0,0,0,-0.034,-0.0335,-0.0301,-0.0296,-0.029,-0.0253,-0.0247,-0.0178,-0.0142,-0.0223,-0.0218,-0.0207,-0.0044,-0.0032,-0.0019,0.0085,0.0059,0.0065,0.007,0.0073,0.0268,0.0269,0,0,0,0,0,0,-0.0352,-0.0339,-0.0303,-0.0298,-0.0309,-0.0254,-0.0246,-0.0248,-0.0145,-0.0129,-0.0208,-0.0205,-0.0046,-0.0028,-0.0011,0.0042,0.0067,0.0074,0.0078,0.0268,0.0269,0.0269,0,0,0,0,0,0,-0.0353,-0.035,-0.0307,-0.0315,-0.0306,-0.0254,-0.0256,-0.0247,-0.0229,-0.0135,-0.0117,-0.0198,-0.0044,-0.0022,0.0058,0.0051,0.0077,0.0084,0.0267,0.0268,0.0269,0.0141,0,0,0,0,0,0,-0.0355,-0.0352,-0.0357,-0.0316,-0.0306,-0.0289,-0.0257,-0.0246,-0.0223,-0.0218,-0.012,-0.0101,-0.0042,0.0046,0.0065,0.0062,0.009,0.0266,0.0267,0.0269,0.0145,0.0138,0.0132,0,0,0,0,0,-0.0357,-0.037,-0.0358,-0.0353,-0.0316,-0.0289,-0.0281,-0.0241,-0.0224,-0.022,-0.0148,-0.0103,0.0068,0.0053,0.0075,0.0073,0.0266,0.0267,0.0269,0.0147,0.0139,0.0132,0,0,0,0,0,0,-0.0389,-0.0363,-0.035,-0.0353,-0.0324,-0.0278,-0.0272,-0.0245,-0.019,-0.018,-0.0094,-0.0069,-0.0007,0.0061,0.0041,0.0137,0.0174,0.018,0.0075,0.0068,0.0061,0.0053,0.0096,0,0,0,0,0,-0.0401,-0.0406,-0.0369,-0.0372,-0.0361,-0.0318,-0.0302,-0.0277,-0.0223,-0.02,-0.0131,-0.0051,0.0015,0.0062,0.0128,0.0187,0.0241,0.0204,0.0197,0.0191,0.0203,0.0257,0.0255,0.0274,0.0274,0.0274,0,0,-0.0413,-0.04,-0.0401,-0.0379,-0.0355,-0.0348,-0.0307,-0.0289,-0.0277,-0.0182,-0.014,-0.0074,0.0025,0.0079,0.0114,0.0138,0.0214,0.0193,0.0187,0.0203,0.0258,0.0256,0.0254,0.0275,0.0275,0.0275,0,0,-0.0442,-0.0431,-0.0443,-0.0427,-0.0398,-0.037,-0.0368,-0.0323,-0.0298,-0.0248,-0.0184,-0.0114,-0.0012,0.0053,0.0101,0.0109,0.0169,0.0126,0.0097,0.0147,0.0145,0.0144,0.0196,0.02,0.0132,0.0131,0.0131,0,-0.0457,-0.0469,-0.044,-0.0447,-0.0437,-0.0385,-0.0392,-0.0362,-0.0295,-0.0269,-0.0245,-0.01,-0.0022,0.0051,0.0053,0.0093,0.0128,0.0106,0.0134,0.0135,0.0136,0.019,0.0196,0.0125,0.0126,0.0127,0.0127,0,-0.0492,-0.0501,-0.0507,-0.0501,-0.0486,-0.0485,-0.0441,-0.0418,-0.0379,-0.0337,-0.0265,-0.0164,-0.0072,-0.0046,0.001,0.0058,0.0081,0.0104,0.014,0.0126,0.0184,0.0193,0.0117,0.0119,0.0121,0.0122,0,0,-0.0528,-0.0533,-0.0535,-0.0545,-0.0517,-0.051,-0.0492,-0.0454,-0.0435,-0.0367,-0.0329,-0.0221,-0.0166,-0.0106,-0.0035,0.0019,0.0054,0.006,0.0065,0.0087,0.0159,0.0187,0.02,0.0064,0.0066,0.0067,0.019,0,-0.0564,-0.06,-0.0583,-0.0606,-0.0619,-0.0574,-0.0561,-0.0518,-0.0463,-0.0412,-0.0314,-0.0248,-0.0191,-0.0148,-0.009,0.0024,0.0075,0.0019,0.0193,0.0199,0.0205,0.0211,0.0183,0.0291,0.0199,0.0201,0.0202,0,-0.0602,-0.0623,-0.066,-0.0665,-0.0664,-0.0665,-0.063,-0.0609,-0.0526,-0.048,-0.0401,-0.0322,-0.0218,-0.0177,-0.0005,-0.0051,0.0046,0.0128,0.0135,0.0217,0.0245,0.0299,0.0313,0.0219,0.0217,0.0216,0.0215,0,-0.065,-0.0673,-0.0707,-0.0711,-0.0706,-0.0707,-0.0694,-0.063,-0.0608,-0.052,-0.0483,-0.0362,-0.0285,-0.0163,0.0011,-0.0001,0.0195,0.0203,0.032,0.0323,0.0368,0.0373,0.0317,0.0317,0.0316,0.0316,0.0316,0,-0.0701,-0.0727,-0.0736,-0.0759,-0.0789,-0.0761,-0.0763,-0.0727,-0.0664,-0.063,-0.0523,-0.0459,-0.028,-0.0144,-0.0004,0.0192,0.0186,0.0326,0.036,0.0323,0.0323,0.032,0.0319,0.0321,0.032,0.0319,0.0318,0,-0.0751,-0.0759,-0.0801,-0.0812,-0.0818,-0.0838,-0.0825,-0.0817,-0.075,-0.07,-0.0676,-0.0522,-0.0343,-0.0158,0.0067,0.0184,0.0361,0.043,0.0376,0.0402,0.0456,0.0447,0.0569,0.0571,0.0573,0.0574,0.0576,0,-0.0781,-0.081,-0.0847,-0.0876,-0.0887,-0.0907,-0.0917,-0.087,-0.0851,-0.0731,-0.0708,-0.0531,-0.0386,-0.0052,0.0176,0.0424,0.0423,0.0539,0.052,0.0463,0.0484,0.0472,0.0461,0.0529,0.053,0.053,0.0531,0,-0.0833,-0.0844,-0.0878,-0.0941,-0.0971,-0.0997,-0.1002,-0.1001,-0.0927,-0.0859,-0.0734,-0.0609,-0.0289,-0.0016,0.0297,0.0436,0.0493,0.056,0.0531,0.0461,0.0433,0.0451,0.044,0.0536,0.0536,0.0535,0.0535,0.0535,-0.0859,-0.0899,-0.0942,-0.0997,-0.1038,-0.107,-0.108,-0.1055,-0.101,-0.0882,-0.0762,-0.0538,-0.0283,0.0168,0.0382,0.0578,0.0576,0.063,0.0625,0.062,0.0585,0.0561,0.0682,0.0682,0.0682,0.0682,0.0683,0,-0.0886,-0.0933,-0.0993,-0.1056,-0.1103,-0.1109,-0.1118,-0.109,-0.1026,-0.0874,-0.0716,-0.0414,-0.0101,0.0159,0.0475,0.0663,0.0641,0.0688,0.0621,0.0615,0.061,0.0571,0.0667,0.0667,0.0667,0.0668,0,0,-0.0903,-0.0966,-0.1001,-0.1088,-0.1131,-0.116,-0.1159,-0.1092,-0.0977,-0.0813,-0.0636,-0.0398,-0.0081,0.0138,0.0368,0.0528,0.0522,0.0541,0.0537,0.0425,0.0418,0.0562,0.0495,0,0,0,0,0]}],[{"header":{"parameterUnit":"m.s-1","parameterCategory":2,"la1":30.2991,"la2":30.254,"lo1":-89.0895,"lo2":-89.0444,"dy":0.0017,"dx":0.0017,"nx":28,"ny":28,"refTime":"2025-11-18T03:00:00:Z","depth":"4","parameterNumber":2,"parameterNumberName":"U-component_of_CURRENTS"},"data":[0,0,0,0,0,0,0,0,0,0,0,0,0,0,0,0,0,0,0,0,0,0,0,0,0,0,0,0,0,0,0,0,0,0,0,0,0,0,0,0,0,0,0,0,0,0,0,0,0,0,0,0,0,0,0,0,0,0,-0.1439,-0.144,0,-0.1472,-0.1472,-0.1473,-0.1475,-0.1474,-0.1474,-0.1474,-0.1499,-0.15,-0.1501,0,0,0,0,0,0,0,0,0,0,0,0,0,-0.1377,-0.1378,-0.1439,-0.144,-0.144,-0.1472,-0.1472,-0.1473,-0.1475,-0.1474,-0.1474,-0.1474,-0.1499,-0.15,-0.1501,0,0,0,0,0,0,0,0,0,0,0,0,0,-0.1406,-0.1378,-0.1439,-0.1446,-0.1447,-0.1472,-0.1472,-0.1473,-0.1475,-0.1474,-0.1474,-0.1474,-0.1498,-0.15,-0.1501,-0.1519,0,0,-0.1505,-0.1506,0,0,0,0,0,0,0,0,-0.1404,-0.1408,-0.1444,-0.1445,-0.1446,-0.1469,-0.1459,-0.1488,-0.1475,-0.1464,-0.1474,-0.1473,-0.1489,-0.1491,-0.1498,-0.152,-0.1522,-0.1506,-0.1506,-0.1507,-0.1507,0,0,0,0,0,0,0,-0.1402,-0.1406,-0.1452,-0.1445,-0.1446,-0.1446,-0.145,-0.1465,-0.1478,-0.1465,-0.1465,-0.147,-0.1489,-0.1496,-0.1498,-0.1522,-0.1505,-0.1507,-0.1508,-0.1508,-0.1606,-0.1608,0,0,0,0,0,0,-0.14,-0.1405,-0.1451,-0.1453,-0.1424,-0.1448,-0.1451,-0.1462,-0.1478,-0.148,-0.147,-0.147,-0.1494,-0.1497,-0.1499,-0.1559,-0.1507,-0.1508,-0.1509,-0.1604,-0.1607,-0.1608,0,0,0,0,0,0,-0.1399,-0.1404,-0.1449,-0.1429,-0.1435,-0.1449,-0.1461,-0.1463,-0.149,-0.1482,-0.1484,-0.1497,-0.1494,-0.1497,-0.153,-0.1559,-0.1509,-0.151,-0.1602,-0.1605,-0.1608,-0.1656,0,0,0,0,0,0,-0.1397,-0.1403,-0.1422,-0.143,-0.1436,-0.1476,-0.1461,-0.1464,-0.1492,-0.1492,-0.1506,-0.1506,-0.1494,-0.1528,-0.1532,-0.156,-0.1511,-0.16,-0.1604,-0.1607,-0.1652,-0.166,-0.1666,0,0,0,0,0,-0.1395,-0.1412,-0.1423,-0.1429,-0.1458,-0.1477,-0.1481,-0.1488,-0.1494,-0.151,-0.1522,-0.1507,-0.1551,-0.1531,-0.1535,-0.1564,-0.1599,-0.1603,-0.1606,-0.1649,-0.1658,-0.1666,0,0,0,0,0,0,-0.1387,-0.1415,-0.1426,-0.1451,-0.1471,-0.1478,-0.1497,-0.1506,-0.1529,-0.1537,-0.1529,-0.1531,-0.1571,-0.1566,-0.1544,-0.1603,-0.1573,-0.1578,-0.1604,-0.1613,-0.162,-0.1624,-0.1513,0,0,0,0,0,-0.1398,-0.1424,-0.1444,-0.1466,-0.1481,-0.1498,-0.1512,-0.1521,-0.1536,-0.1547,-0.1558,-0.1573,-0.1589,-0.16,-0.1613,-0.1647,-0.1643,-0.167,-0.1677,-0.1683,-0.169,-0.1712,-0.1722,-0.1621,-0.1621,-0.1621,0,0,-0.1402,-0.142,-0.1436,-0.1469,-0.1487,-0.1514,-0.1506,-0.1536,-0.1564,-0.1547,-0.1595,-0.1602,-0.1605,-0.1639,-0.1657,-0.1639,-0.171,-0.1688,-0.1693,-0.1696,-0.1717,-0.1727,-0.1735,-0.1624,-0.1623,-0.1623,0,0,-0.1413,-0.1442,-0.1468,-0.1491,-0.1527,-0.154,-0.1556,-0.1585,-0.1605,-0.1648,-0.1643,-0.1668,-0.1699,-0.1701,-0.1706,-0.1765,-0.175,-0.1776,-0.1812,-0.1834,-0.1842,-0.1849,-0.1855,-0.1863,-0.1776,-0.1776,-0.1777,0,-0.1417,-0.1454,-0.1478,-0.1507,-0.1532,-0.1557,-0.1589,-0.1614,-0.1651,-0.1673,-0.1671,-0.1725,-0.1726,-0.1761,-0.1779,-0.178,-0.1787,-0.1775,-0.1842,-0.1849,-0.1855,-0.186,-0.1867,-0.1779,-0.1779,-0.1779,-0.1778,0,-0.1442,-0.1482,-0.15,-0.155,-0.158,-0.1613,-0.1649,-0.1689,-0.1719,-0.1738,-0.1792,-0.1798,-0.1825,-0.1833,-0.1823,-0.1874,-0.1862,-0.1849,-0.1816,-0.1868,-0.187,-0.1877,-0.1783,-0.1782,-0.1781,-0.1781,0,0,-0.1417,-0.1502,-0.1511,-0.1547,-0.1609,-0.1632,-0.1692,-0.1743,-0.1783,-0.1822,-0.187,-0.1898,-0.1904,-0.1911,-0.1908,-0.1926,-0.1972,-0.1912,-0.1912,-0.1911,-0.2018,-0.1854,-0.1845,-0.1974,-0.1975,-0.1977,-0.2,0,-0.1431,-0.1495,-0.1537,-0.1603,-0.1639,-0.1691,-0.1742,-0.1793,-0.1835,-0.1887,-0.1908,-0.1948,-0.1933,-0.1951,-0.1971,-0.1978,-0.1993,-0.1967,-0.1975,-0.1975,-0.1815,-0.1848,-0.1982,-0.2005,-0.2006,-0.2007,-0.2008,0,-0.1435,-0.1483,-0.1552,-0.1639,-0.1661,-0.1708,-0.1794,-0.1842,-0.1913,-0.1948,-0.1992,-0.2006,-0.205,-0.2025,-0.2065,-0.2052,-0.2044,-0.2039,-0.204,-0.1873,-0.1822,-0.1943,-0.202,-0.2019,-0.2018,-0.2017,-0.2017,0,-0.1396,-0.1489,-0.1549,-0.1579,-0.168,-0.1729,-0.1784,-0.1861,-0.1907,-0.1987,-0.2023,-0.2073,-0.2102,-0.2115,-0.2097,-0.2097,-0.2123,-0.2117,-0.1959,-0.1948,-0.2068,-0.206,-0.214,-0.214,-0.214,-0.214,-0.214,0,-0.1379,-0.1429,-0.1542,-0.1573,-0.1646,-0.1721,-0.18,-0.1859,-0.1945,-0.1986,-0.2051,-0.2074,-0.2129,-0.2138,-0.2124,-0.2047,-0.2143,-0.1967,-0.1942,-0.2088,-0.2082,-0.2072,-0.2064,-0.2141,-0.2141,-0.2141,-0.214,0,-0.1319,-0.1399,-0.147,-0.1589,-0.1631,-0.168,-0.1803,-0.1845,-0.1941,-0.1998,-0.2025,-0.2098,-0.2097,-0.2113,-0.2125,-0.2055,-0.2013,-0.1958,-0.2106,-0.209,-0.1824,-0.1819,-0.1804,-0.1798,-0.1793,-0.1789,-0.1786,0,-0.1292,-0.1325,-0.1462,-0.1505,-0.1564,-0.1655,-0.1709,-0.1826,-0.1864,-0.198,-0.1986,-0.2031,-0.2052,-0.1937,-0.1973,-0.1923,-0.1891,-0.1868,-0.1853,-0.1812,-0.1791,-0.1793,-0.1794,-0.1778,-0.1777,-0.1776,-0.1775,0,-0.1229,-0.1291,-0.135,-0.1436,-0.1507,-0.1574,-0.1658,-0.1677,-0.1793,-0.1905,-0.1884,-0.1865,-0.1853,-0.1832,-0.179,-0.1758,-0.1887,-0.1818,-0.1828,-0.1814,-0.1781,-0.1765,-0.1772,-0.1758,-0.176,-0.1762,-0.1763,0,-0.1177,-0.12,-0.1282,-0.1342,-0.1424,-0.1449,-0.1518,-0.1553,-0.1606,-0.1734,-0.172,-0.176,-0.1833,-0.1744,-0.1712,-0.1655,-0.1636,-0.159,-0.1612,-0.1631,-0.1556,-0.1488,-0.1352,0,0,0,0,0,-0.1115,-0.1127,-0.1177,-0.1235,-0.1307,-0.1347,-0.1457,-0.1525,-0.1644,-0.1582,-0.1645,-0.1617,-0.1563,-0.1589,-0.1491,-0.1629,-0.1642,-0.1509,-0.1602,-0.1666,-0.1685,-0.161,0,0,0,0,0,0,-0.1073,-0.1119,-0.1136,-0.112,-0.1132,-0.1192,-0.1251,-0.134,-0.1316,-0.1441,-0.1415,-0.1508,-0.1475,-0.1579,-0.145,-0.1456,-0.1479,-0.1545,-0.154,-0.1655,-0.1673,-0.1688,-0.1617,0,0,0,0,0]},{"header":{"parameterUnit":"m.s-1","parameterCategory":2,"la1":30.2991,"la2":30.254,"lo1":-89.0895,"lo2":-89.0444,"dy":0.0017,"dx":0.0017,"nx":28,"ny":28,"refTime":"2025-11-18T03:00:00:Z","depth":"4","parameterNumber":3,"parameterNumberName":"V-component_of_CURRENTS"},"data":[0,0,0,0,0,0,0,0,0,0,0,0,0,0,0,0,0,0,0,0,0,0,0,0,0,0,0,0,0,0,0,0,0,0,0,0,0,0,0,0,0,0,0,0,0,0,0,0,0,0,0,0,0,0,0,0,0,0,-0.0285,-0.0284,0,-0.0243,-0.0243,-0.0242,-0.0212,-0.0212,-0.0212,-0.0212,-0.0125,-0.0123,-0.0121,0,0,0,0,0,0,0,0,0,0,0,0,0,-0.0288,-0.0288,-0.0285,-0.0284,-0.0284,-0.0243,-0.0243,-0.0242,-0.0212,-0.0212,-0.0212,-0.0211,-0.0126,-0.0124,-0.0121,0,0,0,0,0,0,0,0,0,0,0,0,0,-0.0271,-0.0288,-0.0285,-0.0264,-0.0262,-0.0243,-0.0243,-0.0242,-0.0212,-0.0212,-0.0212,-0.0211,-0.0127,-0.0124,-0.0121,-0.0109,0,0,-0.0111,-0.011,0,0,0,0,0,0,0,0,-0.0272,-0.027,-0.0268,-0.0266,-0.0263,-0.0233,-0.0212,-0.0195,-0.0212,-0.0231,-0.0212,-0.0211,-0.0157,-0.0152,-0.0145,-0.0105,-0.0101,-0.0111,-0.0109,-0.0108,-0.0107,0,0,0,0,0,0,0,-0.0273,-0.0272,-0.0268,-0.0267,-0.0264,-0.024,-0.0237,-0.0209,-0.0196,-0.0229,-0.0227,-0.0223,-0.0156,-0.0148,-0.0143,-0.01,-0.0111,-0.0108,-0.0106,-0.0105,-0.0042,-0.0042,0,0,0,0,0,0,-0.0282,-0.0273,-0.027,-0.0267,-0.0267,-0.024,-0.0237,-0.0243,-0.0197,-0.019,-0.0223,-0.0222,-0.0154,-0.0147,-0.014,-0.0128,-0.0108,-0.0105,-0.0103,-0.0042,-0.0042,-0.0042,0,0,0,0,0,0,-0.0282,-0.0282,-0.0271,-0.0268,-0.0265,-0.0241,-0.0247,-0.0242,-0.0236,-0.0193,-0.0185,-0.0222,-0.0153,-0.0144,-0.0117,-0.0124,-0.0103,-0.0101,-0.0042,-0.0042,-0.0042,-0.01,0,0,0,0,0,0,-0.0282,-0.0283,-0.029,-0.027,-0.0266,-0.0268,-0.0247,-0.0242,-0.0234,-0.0231,-0.0189,-0.0181,-0.0152,-0.0122,-0.0114,-0.0119,-0.0098,-0.0042,-0.0042,-0.0042,-0.0098,-0.0102,-0.0106,0,0,0,0,0,-0.0283,-0.0296,-0.0291,-0.029,-0.0277,-0.0268,-0.0265,-0.0245,-0.0234,-0.0237,-0.0206,-0.0182,-0.0119,-0.012,-0.0111,-0.0115,-0.0041,-0.0042,-0.0042,-0.0096,-0.0101,-0.0106,0,0,0,0,0,0,-0.0301,-0.0294,-0.0287,-0.0298,-0.0287,-0.0263,-0.0264,-0.025,-0.0228,-0.0224,-0.0183,-0.0173,-0.0153,-0.0125,-0.0127,-0.0097,-0.0077,-0.0075,-0.0121,-0.0125,-0.0129,-0.0133,-0.0096,0,0,0,0,0,-0.031,-0.0319,-0.0304,-0.0313,-0.031,-0.0288,-0.0281,-0.0269,-0.0247,-0.0238,-0.0208,-0.0175,-0.0147,-0.013,-0.0103,-0.0085,-0.0038,-0.0081,-0.0085,-0.0089,-0.0086,-0.0015,-0.0012,-0.0044,-0.0044,-0.0044,0,0,-0.0319,-0.0317,-0.0322,-0.0318,-0.0307,-0.0309,-0.0283,-0.028,-0.0279,-0.0231,-0.022,-0.0189,-0.0146,-0.0128,-0.0116,-0.0105,-0.0058,-0.0089,-0.0093,-0.0087,-0.0015,-0.0011,-0.0008,-0.0044,-0.0044,-0.0044,0,0,-0.0343,-0.0342,-0.0356,-0.0352,-0.0342,-0.0328,-0.033,-0.031,-0.0299,-0.0285,-0.025,-0.0221,-0.0184,-0.0152,-0.013,-0.0138,-0.0083,-0.0133,-0.0154,-0.0086,-0.0082,-0.0079,-0.0026,-0.0017,-0.0133,-0.0134,-0.0134,0,-0.0354,-0.0371,-0.0357,-0.0368,-0.0368,-0.0341,-0.0352,-0.0338,-0.0311,-0.0299,-0.029,-0.0223,-0.0193,-0.0156,-0.0164,-0.0147,-0.0102,-0.0141,-0.009,-0.0086,-0.0081,-0.0027,-0.0017,-0.0136,-0.0136,-0.0136,-0.0136,0,-0.0383,-0.0398,-0.0406,-0.0413,-0.041,-0.0417,-0.0396,-0.0389,-0.0372,-0.0349,-0.0313,-0.0267,-0.0223,-0.0214,-0.0193,-0.0149,-0.0126,-0.0105,-0.0079,-0.0081,-0.0025,-0.0013,-0.014,-0.0139,-0.0139,-0.0138,0,0,-0.0406,-0.0425,-0.0428,-0.0442,-0.0435,-0.0438,-0.0435,-0.042,-0.0409,-0.0378,-0.0353,-0.031,-0.0275,-0.0248,-0.0211,-0.0158,-0.0097,-0.0124,-0.0119,-0.0074,0.0051,0.0024,0.0035,-0.0062,-0.006,-0.0058,0.0073,0,-0.0433,-0.047,-0.0466,-0.0496,-0.0512,-0.0491,-0.049,-0.047,-0.044,-0.0408,-0.0349,-0.0315,-0.029,-0.0268,-0.021,-0.0124,-0.0066,-0.0135,0.0048,0.0053,0.0029,0.0048,-0.0052,0.0082,0.0085,0.0087,0.0089,0,-0.0461,-0.0484,-0.0523,-0.0542,-0.0545,-0.0557,-0.0545,-0.0539,-0.0484,-0.0456,-0.04,-0.0349,-0.0276,-0.0252,-0.0095,-0.0138,-0.005,0.0019,0.0026,0.0032,0.0049,0.0089,0.0111,0.011,0.0108,0.0106,0.0105,0,-0.0487,-0.0521,-0.0557,-0.0566,-0.058,-0.0591,-0.0592,-0.0556,-0.0545,-0.0481,-0.0454,-0.0357,-0.0302,-0.0181,-0.0054,-0.0064,0.0127,0.0136,0.0199,0.0198,0.0209,0.0204,0.026,0.026,0.0259,0.0259,0.0258,0,-0.0517,-0.0547,-0.0578,-0.06,-0.0637,-0.0629,-0.0644,-0.0625,-0.0584,-0.0561,-0.0481,-0.043,-0.0279,-0.0159,-0.0044,0.011,0.0142,0.0203,0.0235,0.0179,0.0169,0.0217,0.021,0.0264,0.0263,0.0262,0.0261,0,-0.054,-0.0562,-0.0608,-0.0641,-0.0655,-0.0681,-0.0696,-0.0695,-0.065,-0.0612,-0.0594,-0.0469,-0.0316,-0.0164,0.0041,0.0119,0.0268,0.0318,0.024,0.0264,0.0292,0.0281,0.0404,0.0404,0.0404,0.0405,0.0405,0,-0.0554,-0.0582,-0.0644,-0.0679,-0.0701,-0.0737,-0.0757,-0.0736,-0.0723,-0.0632,-0.0608,-0.0465,-0.0368,-0.009,0.0057,0.0279,0.0304,0.0375,0.0336,0.0291,0.031,0.0299,0.0287,0.0405,0.0405,0.0405,0.0405,0,-0.0577,-0.0604,-0.0642,-0.0717,-0.0761,-0.0797,-0.0818,-0.0813,-0.0766,-0.0728,-0.0597,-0.0456,-0.0281,-0.0088,0.0083,0.0238,0.0321,0.0378,0.0379,0.0342,0.0294,0.031,0.0299,0.0406,0.0406,0.0406,0.0406,0,-0.0589,-0.0625,-0.0683,-0.0742,-0.0803,-0.0836,-0.0845,-0.0811,-0.0787,-0.0678,-0.0635,-0.0443,-0.0327,-0.0107,0.005,0.0194,0.0225,0.026,0.0267,0.0268,0.0175,0.009,0.0177,0,0,0,0,0,-0.0593,-0.0638,-0.0701,-0.0767,-0.0827,-0.0856,-0.0872,-0.0865,-0.0819,-0.0729,-0.0676,-0.051,-0.0262,-0.015,-0.0007,0.0032,0.0228,0.0199,0.0267,0.041,0.0409,0.0319,0,0,0,0,0,0,-0.0601,-0.0664,-0.0699,-0.0771,-0.0817,-0.0871,-0.0882,-0.0853,-0.0789,-0.0722,-0.0584,-0.0493,-0.0251,-0.034,-0.0008,0.0035,0.0092,0.0323,0.0325,0.0411,0.041,0.0409,0.0316,0,0,0,0,0]}]]